timestamp,wind_dir_avg,wind_spd_max_dir,wind_spd_avg,wind_spd_gust,battery_voltage,lat,long
2018-07-10 00:00:00+00:00,226.0,228.0,13.04,14.94,,47.59359,-54.27349
2018-07-10 00:10:00+00:00,227.0,228.0,12.51,14.53,,47.59359,-54.27349
2018-07-10 00:20:00+00:00,225.0,227.0,11.49,12.69,,47.59359,-54.27349
2018-07-10 00:30:00+00:00,222.0,223.0,9.77,11.01,,47.59359,-54.27349
2018-07-10 00:40:00+00:00,226.0,223.0,10.05,11.22,,47.59359,-54.27349
2018-07-10 00:50:00+00:00,222.0,220.0,11.23,12.79,,47.59359,-54.27349
2018-07-10 01:00:00+00:00,225.0,231.0,12.04,13.3,,47.59359,-54.27349
2018-07-10 01:10:00+00:00,226.0,225.0,12.32,14.03,,47.59359,-54.27349
2018-07-10 01:20:00+00:00,225.0,224.0,13.21,14.82,,47.59359,-54.27349
2018-07-10 01:30:00+00:00,227.0,222.0,12.54,15.29,,47.59359,-54.27349
2018-07-10 01:40:00+00:00,228.0,228.0,11.93,14.08,,47.59359,-54.27349
2018-07-10 01:50:00+00:00,231.0,233.0,10.11,11.27,,47.59359,-54.27349
2018-07-10 02:00:00+00:00,228.0,230.0,12.64,14.67,,47.59359,-54.27349
2018-07-10 02:10:00+00:00,227.0,228.0,11.21,12.66,,47.59359,-54.27349
2018-07-10 02:20:00+00:00,226.0,227.0,11.85,14.04,,47.59359,-54.27349
2018-07-10 02:30:00+00:00,224.0,221.0,11.9,13.13,,47.59359,-54.27349
2018-07-10 02:40:00+00:00,223.0,220.0,11.1,12.41,,47.59359,-54.27349
2018-07-10 02:50:00+00:00,223.0,212.0,11.07,13.17,,47.59359,-54.27349
2018-07-10 03:00:00+00:00,224.0,230.0,11.15,13.43,,47.59359,-54.27349
2018-07-10 03:10:00+00:00,225.0,228.0,11.49,12.83,,47.59359,-54.27349
2018-07-10 03:20:00+00:00,228.0,226.0,10.06,11.79,,47.59359,-54.27349
2018-07-10 03:30:00+00:00,231.0,232.0,9.72,10.76,,47.59359,-54.27349
2018-07-10 03:40:00+00:00,230.0,232.0,11.57,13.75,,47.59359,-54.27349
2018-07-10 03:50:00+00:00,232.0,227.0,9.22,11.65,,47.59359,-54.27349
2018-07-10 04:00:00+00:00,234.0,237.0,8.95,10.38,,47.59359,-54.27349
2018-07-10 04:10:00+00:00,231.0,226.0,9.65,11.09,,47.59359,-54.27349
2018-07-10 04:20:00+00:00,224.0,225.0,10.11,11.18,,47.59359,-54.27349
2018-07-10 04:30:00+00:00,220.0,222.0,9.76,11.08,,47.59359,-54.27349
2018-07-10 04:40:00+00:00,220.0,221.0,9.48,11.17,,47.59359,-54.27349
2018-07-10 04:50:00+00:00,222.0,222.0,9.77,12.21,,47.59359,-54.27349
2018-07-10 05:00:00+00:00,222.0,221.0,10.53,11.61,,47.59359,-54.27349
2018-07-10 05:10:00+00:00,224.0,227.0,11.22,12.35,,47.59359,-54.27349
2018-07-10 05:20:00+00:00,224.0,227.0,10.51,12.07,,47.59359,-54.27349
2018-07-10 05:30:00+00:00,221.0,217.0,10.48,11.57,,47.59359,-54.27349
2018-07-10 05:40:00+00:00,220.0,221.0,10.21,11.29,,47.59359,-54.27349
2018-07-10 05:50:00+00:00,218.0,219.0,10.03,11.1,,47.59359,-54.27349
2018-07-10 06:00:00+00:00,217.0,218.0,10.75,11.99,,47.59359,-54.27349
2018-07-10 06:10:00+00:00,220.0,221.0,10.78,12.06,,47.59359,-54.27349
2018-07-10 06:20:00+00:00,222.0,225.0,11.97,13.24,,47.59359,-54.27349
2018-07-10 06:30:00+00:00,222.0,225.0,12.0,13.4,,47.59359,-54.27349
2018-07-10 06:40:00+00:00,226.0,222.0,11.49,12.53,,47.59359,-54.27349
2018-07-10 06:50:00+00:00,229.0,225.0,11.21,12.4,,47.59359,-54.27349
2018-07-10 07:00:00+00:00,226.0,227.0,12.05,13.27,,47.59359,-54.27349
2018-07-10 07:10:00+00:00,229.0,225.0,12.0,13.65,,47.59359,-54.27349
2018-07-10 07:20:00+00:00,227.0,227.0,12.28,13.4,,47.59359,-54.27349
2018-07-10 07:30:00+00:00,226.0,225.0,10.15,11.24,,47.59359,-54.27349
2018-07-10 07:40:00+00:00,226.0,225.0,11.87,13.2,,47.59359,-54.27349
2018-07-10 07:50:00+00:00,225.0,230.0,11.82,12.86,,47.59359,-54.27349
2018-07-10 08:00:00+00:00,228.0,228.0,11.08,12.59,,47.59359,-54.27349
2018-07-10 08:10:00+00:00,228.0,230.0,9.66,10.88,,47.59359,-54.27349
2018-07-10 08:20:00+00:00,228.0,228.0,9.38,10.43,,47.59359,-54.27349
2018-07-10 08:30:00+00:00,231.0,232.0,8.61,9.83,,47.59359,-54.27349
2018-07-10 08:40:00+00:00,225.0,224.0,9.1,10.51,,47.59359,-54.27349
2018-07-10 08:50:00+00:00,226.0,220.0,9.25,11.05,,47.59359,-54.27349
2018-07-10 09:00:00+00:00,223.0,223.0,9.94,11.17,,47.59359,-54.27349
2018-07-10 09:10:00+00:00,226.0,227.0,10.26,11.55,,47.59359,-54.27349
2018-07-10 09:20:00+00:00,226.0,222.0,9.44,10.42,,47.59359,-54.27349
2018-07-10 09:30:00+00:00,224.0,223.0,9.48,10.78,,47.59359,-54.27349
2018-07-10 09:40:00+00:00,227.0,222.0,8.3,9.85,,47.59359,-54.27349
2018-07-10 09:50:00+00:00,231.0,228.0,8.23,9.57,,47.59359,-54.27349
2018-07-10 10:00:00+00:00,229.0,230.0,8.26,9.76,,47.59359,-54.27349
2018-07-10 10:10:00+00:00,232.0,238.0,8.75,10.38,,47.59359,-54.27349
2018-07-10 10:20:00+00:00,230.0,231.0,8.95,10.92,,47.59359,-54.27349
2018-07-10 10:30:00+00:00,228.0,231.0,9.02,10.99,,47.59359,-54.27349
2018-07-10 10:40:00+00:00,228.0,231.0,8.63,9.89,,47.59359,-54.27349
2018-07-10 10:50:00+00:00,227.0,229.0,9.07,10.42,,47.59359,-54.27349
2018-07-10 11:00:00+00:00,227.0,231.0,10.02,11.24,,47.59359,-54.27349
2018-07-10 11:10:00+00:00,226.0,227.0,9.21,10.62,,47.59359,-54.27349
2018-07-10 11:20:00+00:00,224.0,227.0,9.46,10.27,,47.59359,-54.27349
2018-07-10 11:30:00+00:00,221.0,220.0,9.99,10.73,,47.59359,-54.27349
2018-07-10 11:40:00+00:00,223.0,223.0,9.72,10.7,,47.59359,-54.27349
2018-07-10 11:50:00+00:00,222.0,223.0,10.11,11.05,,47.59359,-54.27349
2018-07-10 12:00:00+00:00,219.0,218.0,10.43,11.29,,47.59359,-54.27349
2018-07-10 12:10:00+00:00,220.0,220.0,10.03,10.9,,47.59359,-54.27349
2018-07-10 12:20:00+00:00,218.0,218.0,10.89,11.54,,47.59359,-54.27349
2018-07-10 12:30:00+00:00,220.0,220.0,11.2,12.65,,47.59359,-54.27349
2018-07-10 12:40:00+00:00,222.0,227.0,11.37,13.25,,47.59359,-54.27349
2018-07-10 12:50:00+00:00,227.0,231.0,12.33,15.33,,47.59359,-54.27349
2018-07-10 13:00:00+00:00,226.0,225.0,12.14,14.54,,47.59359,-54.27349
2018-07-10 13:10:00+00:00,226.0,231.0,12.45,15.18,,47.59359,-54.27349
2018-07-10 13:20:00+00:00,225.0,230.0,11.12,12.7,,47.59359,-54.27349
2018-07-10 13:30:00+00:00,224.0,224.0,10.03,11.7,,47.59359,-54.27349
2018-07-10 13:40:00+00:00,221.0,221.0,10.18,12.21,,47.59359,-54.27349
2018-07-10 13:50:00+00:00,219.0,220.0,9.87,11.04,,47.59359,-54.27349
2018-07-10 14:00:00+00:00,217.0,218.0,8.94,10.41,,47.59359,-54.27349
2018-07-10 14:10:00+00:00,217.0,219.0,9.96,11.68,,47.59359,-54.27349
2018-07-10 14:20:00+00:00,218.0,225.0,10.27,11.26,,47.59359,-54.27349
2018-07-10 14:30:00+00:00,213.0,218.0,8.52,9.72,,47.59359,-54.27349
2018-07-10 14:40:00+00:00,217.0,217.0,9.2,10.23,,47.59359,-54.27349
2018-07-10 14:50:00+00:00,221.0,223.0,8.94,10.05,,47.59359,-54.27349
2018-07-10 15:00:00+00:00,216.0,215.0,8.11,9.32,,47.59359,-54.27349
2018-07-10 15:10:00+00:00,217.0,222.0,6.82,7.83,,47.59359,-54.27349
2018-07-10 15:20:00+00:00,215.0,216.0,8.09,9.25,,47.59359,-54.27349
2018-07-10 15:30:00+00:00,218.0,223.0,8.92,9.83,,47.59359,-54.27349
2018-07-10 15:40:00+00:00,220.0,222.0,9.22,10.79,,47.59359,-54.27349
2018-07-10 15:50:00+00:00,221.0,224.0,9.48,10.44,,47.59359,-54.27349
2018-07-10 16:00:00+00:00,223.0,225.0,9.76,11.77,,47.59359,-54.27349
2018-07-10 16:10:00+00:00,222.0,224.0,9.78,10.99,,47.59359,-54.27349
2018-07-10 16:20:00+00:00,223.0,226.0,9.57,10.49,,47.59359,-54.27349
2018-07-10 16:30:00+00:00,224.0,225.0,9.87,11.26,,47.59359,-54.27349
2018-07-10 16:40:00+00:00,225.0,228.0,9.65,10.71,,47.59359,-54.27349
2018-07-10 16:50:00+00:00,225.0,227.0,10.19,11.61,,47.59359,-54.27349
2018-07-10 17:00:00+00:00,220.0,218.0,9.5,10.57,,47.59359,-54.27349
2018-07-10 17:10:00+00:00,222.0,223.0,9.36,10.69,,47.59359,-54.27349
2018-07-10 17:20:00+00:00,221.0,227.0,10.04,10.71,,47.59359,-54.27349
2018-07-10 17:30:00+00:00,223.0,222.0,10.05,11.14,,47.59359,-54.27349
2018-07-10 17:40:00+00:00,222.0,222.0,10.47,11.62,,47.59359,-54.27349
2018-07-10 17:50:00+00:00,221.0,226.0,11.54,12.71,,47.59359,-54.27349
2018-07-10 18:00:00+00:00,221.0,222.0,10.48,11.87,,47.59359,-54.27349
2018-07-10 18:10:00+00:00,218.0,219.0,10.17,11.01,,47.59359,-54.27349
2018-07-10 18:20:00+00:00,219.0,220.0,10.81,12.06,,47.59359,-54.27349
2018-07-10 18:30:00+00:00,224.0,223.0,10.55,11.49,,47.59359,-54.27349
2018-07-10 18:40:00+00:00,221.0,221.0,10.92,12.23,,47.59359,-54.27349
2018-07-10 18:50:00+00:00,219.0,217.0,11.46,13.16,,47.59359,-54.27349
2018-07-10 19:00:00+00:00,219.0,221.0,10.9,12.18,,47.59359,-54.27349
2018-07-10 19:10:00+00:00,215.0,218.0,11.15,12.43,,47.59359,-54.27349
2018-07-10 19:20:00+00:00,216.0,220.0,10.54,11.44,,47.59359,-54.27349
2018-07-10 19:30:00+00:00,216.0,218.0,10.75,11.94,,47.59359,-54.27349
2018-07-10 19:40:00+00:00,216.0,213.0,9.89,10.77,,47.59359,-54.27349
2018-07-10 19:50:00+00:00,215.0,215.0,9.84,10.65,,47.59359,-54.27349
2018-07-10 20:00:00+00:00,214.0,217.0,9.48,10.72,,47.59359,-54.27349
2018-07-10 20:10:00+00:00,213.0,216.0,8.75,9.71,,47.59359,-54.27349
2018-07-10 20:20:00+00:00,214.0,215.0,10.01,11.0,,47.59359,-54.27349
2018-07-10 20:30:00+00:00,212.0,214.0,9.6,10.4,,47.59359,-54.27349
2018-07-10 20:40:00+00:00,216.0,216.0,10.13,10.92,,47.59359,-54.27349
2018-07-10 20:50:00+00:00,220.0,224.0,10.67,12.08,,47.59359,-54.27349
2018-07-10 21:00:00+00:00,227.0,230.0,12.37,13.95,,47.59359,-54.27349
2018-07-10 21:10:00+00:00,232.0,232.0,9.66,10.7,,47.59359,-54.27349
2018-07-10 21:20:00+00:00,232.0,234.0,7.47,8.13,,47.59359,-54.27349
2018-07-10 21:30:00+00:00,219.0,219.0,5.94,6.72,,47.59359,-54.27349
2018-07-10 21:40:00+00:00,233.0,236.0,6.63,7.29,,47.59359,-54.27349
2018-07-10 21:50:00+00:00,235.0,236.0,9.92,11.44,,47.59359,-54.27349
2018-07-10 22:00:00+00:00,232.0,234.0,8.12,9.38,,47.59359,-54.27349
2018-07-10 22:10:00+00:00,239.0,237.0,7.55,8.69,,47.59359,-54.27349
2018-07-10 22:20:00+00:00,222.0,224.0,6.73,7.44,,47.59359,-54.27349
2018-07-10 22:30:00+00:00,193.0,200.0,5.23,6.14,,47.59359,-54.27349
2018-07-10 22:40:00+00:00,189.0,193.0,2.87,3.64,,47.59359,-54.27349
2018-07-10 22:50:00+00:00,236.0,240.0,5.91,7.81,,47.59359,-54.27349
2018-07-10 23:00:00+00:00,252.0,258.0,7.71,9.42,,47.59359,-54.27349
2018-07-10 23:10:00+00:00,233.0,235.0,6.72,7.41,,47.59359,-54.27349
2018-07-10 23:20:00+00:00,227.0,230.0,8.22,9.43,,47.59359,-54.27349
2018-07-10 23:30:00+00:00,234.0,230.0,6.74,8.05,,47.59359,-54.27349
2018-07-10 23:40:00+00:00,232.0,231.0,7.34,7.95,,47.59359,-54.27349
2018-07-10 23:50:00+00:00,227.0,226.0,7.49,8.33,,47.59359,-54.27349
